Location: Nassau
(25.0830°N, 77.3500°W)
Time: 14:56:16
(UTC-04:00)

ISS - All Passes

Search period start: 30 October 2014 00:00
Search period end: 08 November 2014 23:00
Orbit: 412 x 417 km, 51.6° (Epoch: 30 October)

Date Brightness Start Highest point End Pass type
(mag) Time Alt. Az. Time Alt. Az. Time Alt. Az.
30 Oct - 09:49:44 10° SW 09:53:01 86° SE 09:56:20 10° NE daylight
30 Oct - 18:02:01 10° N 18:04:39 21° NE 18:07:18 10° E daylight
30 Oct - 19:38:47 10° WNW 19:41:12 19° SW 19:43:37 10° S visible
31 Oct - 09:00:55 10° SSW 09:03:58 35° SE 09:07:02 10° ENE daylight
31 Oct - 10:39:08 10° WNW 10:40:43 13° NW 10:42:19 10° NNW daylight
31 Oct - 17:14:04 10° NNE 17:15:22 12° NE 17:16:40 10° ENE daylight
31 Oct - 18:49:01 10° WNW 18:52:10 41° SW 18:55:19 10° SSE visible
01 Nov - 08:12:44 10° SSE 08:14:55 17° SE 08:17:06 10° E daylight
01 Nov - 09:48:41 10° W 09:51:25 23° NW 09:54:09 10° NNE daylight
01 Nov - 17:59:42 10° NW 18:03:02 83° NE 18:06:21 10° SE daylight
02 Nov - 07:58:57 10° SW 08:02:09 49° NW 08:05:23 10° NNE daylight
02 Nov - 16:10:42 10° NNW 16:13:48 35° NE 16:16:53 10° ESE daylight
02 Nov - 17:49:21 10° WSW 17:50:10 11° SW 17:51:00 10° SW visible
03 Nov - 07:09:39 10° SSW 07:12:55 69° SE 07:16:13 10° NE daylight
03 Nov - 15:22:03 10° N 15:24:27 18° NE 15:26:51 10° E daylight
03 Nov - 16:58:22 10° WNW 17:01:03 23° SW 17:03:43 10° S daylight
04 Nov - 06:20:49 10° S 06:23:43 29° SE 06:26:37 10° ENE daylight
04 Nov - 07:58:24 10° WNW 08:00:23 15° NW 08:02:23 10° N daylight
04 Nov - 14:34:54 10° NE 14:34:58 10° NE 14:35:03 10° NE daylight
04 Nov - 16:08:36 10° NW 16:11:50 51° SW 16:15:04 10° SSE daylight
05 Nov - 05:32:46 10° SSE 05:34:31 14° SE 05:36:15 10° E visible
05 Nov - 07:08:03 10° WSW 07:10:56 28° NW 07:13:51 10° NNE daylight
05 Nov - 15:19:14 10° NW 15:22:32 65° NE 15:25:49 10° SE daylight
06 Nov - 06:18:16 10° SW 06:21:32 62° NW 06:24:49 10° NE daylight
06 Nov - 14:30:09 10° NNW 14:33:06 29° NE 14:36:03 10° ESE daylight
06 Nov - 16:07:52 10° W 16:09:31 13° SW 16:11:11 10° SSW daylight
07 Nov - 05:28:56 10° SSW 05:32:09 53° SE 05:35:23 10° NE visible
07 Nov - 13:41:29 10° N 13:43:34 15° NE 13:45:38 10° E daylight
07 Nov - 15:17:20 10° WNW 15:20:13 28° SW 15:23:06 10° S daylight
08 Nov - 04:40:06 10° S 04:42:47 23° SE 04:45:29 10° ENE visible
08 Nov - 06:17:04 10° W 06:19:23 18° NW 06:21:43 10° N daylight
08 Nov - 14:27:32 10° NW 14:30:50 66° SW 14:34:07 10° SSE daylight
